Temperature
21 21 21 20 20 20 22 24 26 26 25 25 25 24 23 23 22 20 21 21 21 21 20 20 20 20 20 20 20 20 20 20 19 19 19 19 19 19 19 19 19 19 19 19 19 19 19 19 19
22 21 21 20 20 21 23 25 25 26 25 25 25 24 23 22 21 20 20 21 21 21 21 20 20 20 20 20 20 20 20 20 20 19 19 19 19 19 19 19 19 19 19 19 19 19 19 19 19
22 21 21 20 21 22 24 26 26 26 26 26 25 24 23 22 21 21 21 21 21 21 21 21 20 20 20 20 20 20 20 19 19 19 19 19 19 19 19 19 19 19 19 19 19 19 19 19 19
22 21 21 21 23 24 25 26 26 26 26 25 24 23 23 22 22 22 21 21 21 21 21 21 20 20 20 20 20 20 20 19 20 19 19 19 19 19 19 19 19 19 19 19 19 19 19 19 19
22 21 21 22 24 26 27 27 27 26 25 24 24 23 22 22 22 22 22 21 22 21 21 21 21 20 20 20 20 20 20 20 19 19 19 19 19 19 19 19 19 19 19 19 19 19 19 19 19
22 21 21 22 25 26 27 27 27 25 25 24 23 22 22 22 22 22 22 22 22 21 21 21 21 20 20 20 20 20 20 20 19 19 19 19 19 19 19 19 19 19 19 19 19 19 19 19 19
22 21 22 23 25 26 27 27 26 25 25 25 24 22 22 22 22 22 22 22 21 21 21 21 21 20 20 20 20 20 20 20 19 19 19 19 19 19 19 19 19 19 19 19 19 19 19 19 19
23 21 23 24 25 26 27 27 27 26 25 25 24 22 22 22 22 22 22 22 21 21 21 21 21 20 20 20 20 20 20 20 19 19 19 19 19 19 19 19 19 19 19 19 19 19 19 19 18
24 22 23 24 25 26 27 27 27 27 26 25 25 24 23 22 22 21 21 21 21 21 21 21 21 21 20 20 20 20 20 20 19 19 19 19 19 19 19 19 19 19 19 19 19 19 19 19 19
23 22 24 26 26 26 27 27 27 26 25 25 24 24 23 22 22 22 21 21 21 21 21 21 21 21 20 20 20 20 20 20 19 19 19 19 19 19 19 19 19 19 19 19 19 19 19 18 18
24 24 25 26 27 27 27 27 27 26 24 24 24 23 23 23 22 22 22 22 22 21 21 21 21 21 21 20 20 20 20 20 19 19 19 19 19 19 19 19 19 19 19 19 19 18 19 18 18
25 26 27 27 28 28 27 27 27 26 26 26 25 24 23 23 22 22 22 22 22 21 21 21 21 21 21 20 20 20 20 20 20 19 19 19 19 19 19 19 19 19 19 19 19 18 18 18 18
26 26 28 28 28 28 28 27 27 26 26 25 25 24 24 23 23 22 22 22 22 22 21 21 21 21 21 20 20 20 20 20 20 20 19 19 19 19 19 19 19 19 19 19 19 18 18 18 18
27 27 28 28 28 28 27 27 27 26 26 25 25 24 24 23 23 23 22 22 22 22 22 21 21 21 21 21 20 20 20 20 20 20 20 19 19 19 19 19 19 19 19 19 19 18 18 18 18
28 27 27 28 28 28 27 26 26 26 26 25 24 24 24 24 23 23 23 22 22 22 22 21 21 21 21 21 21 20 20 20 20 20 20 20 19 19 19 19 19 19 19 19 18 18 18 18 18
27 26 26 27 27 28 26 25 26 26 25 25 24 24 24 24 24 23 23 23 22 22 22 22 21 21 21 21 21 21 20 20 20 20 20 20 19 19 19 19 19 19 19 19 18 18 18 18 18
25 25 26 27 28 27 26 25 26 26 26 25 25 24 24 24 24 23 23 23 23 22 22 22 21 21 21 21 21 21 20 20 20 20 20 20 19 19 19 19 19 19 18 18 18 18 18 18 18
25 25 26 26 27 27 26 25 26 26 26 25 25 25 24 24 24 24 23 23 23 22 22 22 22 21 21 21 21 21 20 20 20 20 20 20 19 19 19 19 19 19 18 18 18 18 18 18 18
26 26 26 27 28 27 26 25 26 26 26 25 25 24 24 24 24 24 23 23 23 22 22 22 22 21 21 21 21 21 20 20 20 20 20 19 19 19 19 19 19 19 19 18 18 18 18 18 18
27 26 26 27 27 27 26 25 26 26 25 25 25 24 24 24 24 24 23 23 23 23 22 22 22 22 21 21 21 21 20 20 20 20 20 19 19 19 19 19 19 19 18 18 18 18 18 18 18
27 26 26 26 26 26 26 24 24 25 26 26 25 25 24 24 24 24 23 23 23 23 22 22 22 22 21 21 21 20 20 20 20 19 19 19 19 19 19 19 19 18 18 18 18 18 18 18 18
26 27 28 27 25 23 25 23 24 24 24 25 25 24 24 24 24 24 23 23 23 23 23 22 22 22 21 21 21 20 20 20 20 20 19 19 19 19 19 19 19 18 18 18 18 18 18 18 18
27 28 28 27 25 23 24 23 23 23 24 24 24 24 24 24 24 24 23 23 23 23 22 22 22 22 21 21 20 20 20 20 20 19 19 19 19 19 19 18 19 18 18 18 18 18 18 18 18
29 27 26 24 22 23 23 23 23 22 24 24 24 24 24 24 24 24 24 23 23 22 22 22 22 22 21 21 20 20 20 20 20 19 19 19 19 19 19 18 18 18 18 18 18 18 18 18 17
27 24 23 23 22 22 23 23 22 24 24 24 24 24 24 24 24 24 23 23 23 22 22 22 22 22 21 21 20 20 20 20 20 20 19 19 19 19 19 18 18 18 18 18 18 18 18 17 17
26 24 23 23 22 22 23 23 23 25 25 25 24 24 24 24 24 24 23 23 23 22 22 22 22 22 21 21 21 20 20 20 20 20 20 19 19 19 18 18 18 18 18 18 18 17 17 17 17
27 25 23 22 22 22 22 23 23 24 24 24 24 24 23 24 24 24 24 23 23 23 22 22 22 22 21 21 21 20 20 20 20 19 19 19 19 19 18 18 18 18 18 17 17 17 17 17 17
27 25 22 22 22 22 22 22 22 23 23 23 23 23 23 23 23 24 23 23 23 23 22 22 22 22 21 21 21 20 20 20 19 19 19 19 18 18 18 18 18 18 17 17 17 17 17 17 16
27 26 23 20 21 21 21 22 24 23 23 22 22 23 23 23 23 23 23 23 23 22 22 22 22 21 21 21 20 20 20 20 19 19 19 19 18 18 18 18 17 17 17 17 17 16 16 16 16
26 25 23 22 22 20 20 21 24 23 23 22 22 22 23 23 23 23 23 22 22 22 22 22 21 21 21 21 20 20 20 19 19 19 19 18 18 18 18 17 17 17 17 17 16 16 16 16 16
Wind_Speed
9 6 2 1 1 2 2 2 5 7 6 8 11 11 9 7 5 6 3 10 12 9 9 12 12 12 11 12 12 12 13 14 14 14 14 15 15 16 15 15 15 15 15 15 14 14 13 13 12
5 4 1 1 2 3 2 4 8 9 10 11 12 11 9 7 7 9 6 11 13 11 10 11 13 12 12 13 13 13 13 13 13 13 13 14 14 14 14 14 14 14 14 14 13 13 12 12 12
4 3 0 1 1 3 2 6 10 11 10 8 6 7 6 6 7 6 9 14 12 10 10 12 14 13 13 13 13 13 12 13 13 13 13 13 13 13 13 13 13 13 12 12 12 12 11 11 11
1 0 1 2 1 2 4 7 11 12 9 9 9 7 5 5 6 9 15 14 13 10 11 13 14 13 13 13 12 12 12 12 12 12 12 12 13 13 12 12 12 12 11 11 11 10 10 10 10
1 1 3 2 1 2 5 8 12 11 6 9 11 8 5 5 13 16 14 14 14 9 9 13 14 13 13 12 12 12 11 11 11 11 11 11 12 12 11 11 11 11 11 10 10 10 9 9 9
1 2 3 1 1 2 5 10 13 14 12 10 11 8 4 7 14 14 14 13 13 11 9 11 14 13 12 12 11 11 11 10 10 10 10 10 10 10 10 10 10 10 9 9 9 9 9 8 7
1 1 1 1 0 3 6 8 10 12 11 7 8 7 5 7 11 13 12 12 11 10 9 8 10 11 12 11 11 10 10 9 9 9 9 9 9 8 9 9 9 9 10 9 9 8 8 7 6
3 1 1 1 2 2 5 5 8 12 9 9 7 8 7 9 11 12 12 11 10 8 7 6 7 8 9 9 10 10 9 8 8 8 8 8 7 7 8 8 8 8 9 9 8 7 7 7 6
2 2 2 3 2 2 5 9 6 7 11 6 4 7 11 14 14 13 11 9 8 7 5 5 5 6 7 7 8 8 8 7 7 6 7 6 4 5 5 7 8 8 8 8 8 7 6 6 6
3 2 5 4 4 4 5 10 7 6 10 8 10 11 13 13 14 15 13 11 9 8 7 5 5 5 6 6 6 6 5 5 5 5 5 5 5 5 5 6 7 7 7 7 7 7 7 6 4
3 5 4 3 4 5 5 6 5 9 7 12 16 16 14 13 12 13 13 12 10 9 8 6 6 6 5 3 5 4 3 4 4 4 4 5 4 3 4 3 3 4 5 4 4 5 4 4 4
4 6 5 3 3 4 4 5 6 8 9 14 18 18 15 13 12 12 12 11 10 9 8 7 6 6 5 4 4 4 3 3 3 3 4 4 2 2 2 2 3 3 2 2 2 2 3 3 5
4 4 4 4 2 4 6 6 7 7 12 14 16 16 14 13 11 10 11 11 10 9 8 8 7 6 5 4 3 4 3 3 3 4 4 4 3 2 2 2 2 2 2 2 2 1 2 2 3
3 3 2 3 3 4 8 5 5 8 14 15 16 14 13 12 11 9 9 10 9 9 8 7 7 6 5 4 4 4 4 4 4 3 4 5 4 3 2 2 2 2 2 3 2 2 2 2 2
0 1 3 1 2 4 8 4 5 10 14 15 14 13 13 11 11 11 12 11 11 9 8 8 8 6 6 5 4 4 4 4 3 3 4 4 4 3 3 2 2 2 3 3 2 1 1 2 2
2 2 2 4 2 3 8 4 5 10 13 12 13 13 12 11 11 12 12 11 10 10 9 9 8 7 6 5 4 4 4 5 4 4 3 4 4 4 3 2 1 1 2 2 2 2 2 1 2
3 1 4 4 2 3 4 5 6 10 12 11 12 12 12 10 10 10 11 12 11 11 10 8 7 7 6 5 4 4 4 4 3 3 3 3 3 4 4 2 1 2 2 1 1 2 2 2 1
4 3 4 4 3 2 3 5 7 12 12 12 11 11 12 12 12 11 11 11 11 10 10 9 7 7 6 4 3 3 3 2 2 3 3 4 3 4 4 3 2 3 2 2 2 2 1 1 1
6 5 5 5 3 3 4 5 8 9 11 12 11 10 11 12 11 11 12 12 11 9 9 8 7 6 6 4 3 3 2 2 1 2 2 3 3 4 4 2 2 2 2 2 2 2 2 1 1
5 3 4 3 1 1 2 4 5 7 10 12 13 12 11 9 9 10 11 11 11 11 10 9 8 7 6 5 4 3 3 2 2 2 2 3 3 3 4 3 2 2 2 2 1 2 2 0 1
5 6 6 3 2 4 3 2 3 4 4 8 12 12 12 13 12 12 12 11 11 10 11 10 9 8 7 6 4 3 3 2 2 1 1 1 3 3 3 3 3 2 2 2 1 1 2 1 0
5 7 6 3 3 2 2 2 6 5 3 6 9 10 12 12 11 11 12 11 11 11 10 9 9 8 7 7 6 6 5 3 3 3 2 1 2 3 4 4 3 2 2 1 1 1 1 2 1
7 5 3 2 3 1 1 2 6 2 5 6 8 12 13 12 13 12 13 13 11 9 9 9 8 8 7 7 8 7 5 4 3 3 3 2 1 2 3 3 3 3 2 2 1 1 1 2 2
4 3 5 4 4 1 4 4 5 5 9 8 8 10 12 12 11 10 10 10 8 7 7 8 8 7 7 7 7 7 7 6 5 4 4 2 1 1 2 2 2 2 2 2 1 1 1 1 1
2 5 4 4 4 4 3 3 6 7 7 9 9 8 9 11 10 10 10 10 9 9 9 8 9 7 7 7 7 7 7 7 7 6 5 4 2 2 2 2 2 2 2 2 2 2 1 1 1
5 9 7 5 5 4 2 2 6 5 4 7 8 7 7 9 11 12 13 12 12 11 10 9 9 9 8 9 8 7 7 5 5 5 5 5 4 4 3 3 2 2 2 2 2 2 1 1 1
4 4 8 7 2 1 3 3 5 1 4 6 8 6 6 8 9 11 11 11 10 10 10 9 9 8 8 8 7 6 6 5 5 5 5 4 4 4 4 4 3 2 2 3 2 1 1 1 1
7 7 6 5 4 1 3 3 4 4 4 6 7 6 5 6 7 8 9 10 10 10 9 9 8 8 7 7 7 6 6 6 6 5 6 5 5 4 5 4 4 3 2 2 2 1 1 1 0
1 3 5 5 6 6 3 6 5 9 8 9 7 6 6 6 6 6 6 7 7 6 7 7 7 7 6 7 6 6 6 6 5 5 6 5 4 5 4 4 3 3 3 3 3 2 1 1 0
5 6 7 6 4 6 5 6 5 7 7 9 9 7 8 8 7 6 6 6 6 6 5 6 6 6 6 6 6 6 5 5 5 4 4 5 5 5 4 4 4 3 3 3 3 3 1 1 1
Wind_Direction
183 176 164 180 40 43 44 69 105 85 66 71 79 84 82 67 101 133 149 140 132 135 137 129 121 116 112 110 108 107 108 111 111 112 113 115 116 117 120 123 125 129 132 135 135 133 132 133 132
166 170 170 28 62 63 44 99 91 93 116 104 81 79 75 66 81 112 122 139 135 134 133 128 122 117 114 112 109 108 110 112 114 115 116 118 120 122 124 126 126 128 131 135 136 135 136 137 137
172 193 170 53 63 134 134 112 110 106 107 97 88 65 70 99 109 126 145 142 133 130 132 130 124 119 117 116 112 111 113 114 115 117 118 121 124 125 127 129 129 129 131 134 138 140 142 142 143
128 84 12 62 76 171 142 130 117 107 83 74 91 69 61 99 117 134 140 138 131 132 134 132 127 125 122 120 117 113 114 117 117 119 121 124 127 129 132 134 134 135 137 140 142 144 145 146 145
114 60 22 31 43 123 136 127 115 105 88 92 95 93 67 66 115 131 137 136 134 135 136 135 130 130 127 125 122 119 117 119 120 120 124 127 132 135 136 139 141 143 146 148 149 150 151 151 150
56 67 53 18 23 97 114 113 104 103 108 107 103 103 88 120 126 136 137 136 138 142 143 141 137 134 132 130 127 125 125 125 127 128 130 133 138 141 143 146 149 152 155 156 155 156 158 160 159
118 64 179 191 86 105 121 111 114 122 119 118 120 103 121 140 143 140 136 135 138 143 143 144 145 141 138 135 133 132 131 131 135 138 138 138 142 148 153 156 158 161 162 164 166 164 166 169 172
157 100 255 171 119 139 132 114 122 127 117 124 121 123 151 161 145 134 130 129 132 138 144 145 147 148 147 145 140 138 137 137 140 146 146 143 147 155 162 165 168 169 170 173 177 178 180 181 184
137 97 228 199 147 166 128 112 112 106 119 128 109 127 149 145 135 131 128 125 132 140 147 145 147 152 157 156 154 150 149 149 150 153 151 144 147 160 171 171 173 178 182 185 190 194 195 194 196
137 164 222 214 178 172 138 129 129 105 107 103 103 117 135 136 137 139 142 144 149 155 161 162 158 158 159 163 157 160 157 158 158 158 158 154 161 174 179 178 177 182 187 194 201 207 208 207 204
186 202 225 223 183 160 141 136 121 122 124 140 141 144 146 142 143 145 149 153 157 160 160 167 167 164 164 162 155 165 159 150 150 151 156 159 164 174 165 165 181 197 201 205 213 221 221 209 202
202 235 230 202 174 150 153 144 119 130 150 151 149 149 150 150 153 153 153 158 157 156 162 166 166 164 169 157 158 164 153 143 154 162 157 150 147 147 157 165 181 197 212 196 203 212 213 203 198
207 245 234 214 188 172 144 136 123 129 136 140 143 147 151 154 156 154 152 154 155 159 163 166 161 160 162 152 158 150 155 156 161 151 155 152 145 154 160 167 176 195 193 183 184 190 179 175 190
210 247 253 185 150 151 133 126 110 145 139 142 149 152 156 158 157 151 152 154 158 162 163 163 158 159 152 152 152 149 153 158 158 152 156 155 157 148 144 140 147 170 182 184 169 170 169 174 173
236 339 331 189 162 155 120 103 152 157 147 150 156 158 158 162 160 158 164 162 163 162 158 158 160 158 155 152 153 145 147 146 146 160 160 153 150 140 135 139 142 169 175 158 133 112 117 135 149
354 34 308 256 157 153 116 175 193 156 149 156 162 164 162 164 166 164 163 159 158 152 153 159 160 156 153 148 144 141 137 136 141 150 150 148 145 141 129 135 150 159 135 126 128 112 112 115 131
4 279 261 273 198 155 131 185 194 164 157 168 171 168 163 162 168 167 162 161 159 157 158 159 155 156 155 150 137 131 127 131 134 141 146 155 147 137 125 128 130 120 105 103 130 103 123 128 137
253 248 251 249 229 147 163 199 185 173 166 174 177 173 169 171 178 170 164 162 159 157 159 159 157 159 153 144 124 112 109 123 127 132 144 152 145 134 127 123 115 101 94 83 94 100 98 139 169
232 250 255 250 207 168 189 194 197 179 173 173 176 176 175 180 180 167 165 164 161 158 158 162 160 165 158 153 152 144 156 161 146 137 138 140 141 141 128 125 116 107 106 118 118 116 97 59 72
229 247 270 289 257 150 179 219 215 186 188 181 175 179 179 175 171 169 167 168 168 169 168 166 166 166 167 172 169 157 153 163 165 147 125 145 135 138 140 124 129 117 111 88 82 105 98 40 98
250 212 224 212 20 28 83 342 260 245 192 180 182 181 180 177 176 174 172 173 169 174 176 174 173 169 169 162 145 127 102 88 101 125 170 163 147 139 128 124 120 109 121 131 127 134 135 164 311
255 227 208 199 115 267 125 223 261 232 205 186 189 182 184 184 178 171 170 172 176 182 176 171 172 170 169 158 152 150 153 159 179 174 165 142 138 140 140 136 127 124 119 110 117 122 136 139 183
222 223 199 189 137 59 346 151 271 205 192 205 189 186 187 184 181 179 176 177 178 176 172 172 169 171 168 163 163 160 165 174 163 146 139 150 149 154 152 148 151 140 132 138 128 94 114 142 157
203 49 23 44 75 317 242 171 257 223 198 188 185 185 182 177 173 170 168 162 165 166 168 168 164 172 172 167 167 169 172 171 158 157 160 170 171 177 159 150 159 149 141 162 160 150 116 124 126
106 89 31 0 5 257 242 154 247 248 199 176 171 182 178 169 162 159 160 164 167 171 175 173 168 173 175 172 176 180 179 178 178 178 175 171 171 180 190 163 154 155 162 158 138 126 112 117 118
206 147 161 196 219 265 324 211 255 246 160 155 157 166 165 161 160 165 170 173 173 177 177 175 176 179 180 181 186 185 183 182 184 183 178 179 183 188 181 168 160 162 166 155 135 145 157 130 136
186 184 171 146 169 173 285 289 314 358 121 142 146 146 152 159 160 164 172 172 173 175 178 178 179 182 183 185 184 182 183 179 179 176 175 177 182 178 165 166 169 174 171 168 155 154 183 150 148
178 163 104 123 150 224 283 258 233 228 181 158 148 152 149 144 146 157 169 170 171 172 174 174 174 176 178 179 181 183 185 187 180 172 177 180 181 171 166 169 178 178 171 161 158 162 179 131 170
195 138 126 132 147 151 213 260 227 201 178 160 158 157 152 144 149 148 149 153 157 158 164 169 174 172 172 174 177 179 187 188 181 181 185 180 173 164 169 175 178 181 172 157 145 158 150 140 299
170 178 150 157 197 168 172 251 243 190 178 160 154 149 149 154 157 144 144 139 139 149 162 167 172 177 184 181 176 180 180 174 173 180 182 173 169 165 165 166 165 171 170 167 164 171 160 172 216
Height
1513 1513 1513 1514 1515 1519 1518 1507 1498 1497 1498 1499 1498 1500 1503 1507 1512 1521 1518 1517 1518 1519 1519 1519 1519 1518 1518 1517 1517 1517 1517 1517 1517 1518 1518 1519 1520 1522 1523 1524 1525 1527 1528 1530 1532 1534 1535 1537 1538
1513 1513 1515 1515 1519 1527 1519 1504 1500 1498 1500 1500 1501 1503 1506 1510 1511 1514 1516 1519 1519 1519 1520 1520 1520 1519 1519 1519 1518 1518 1518 1518 1519 1519 1520 1521 1522 1523 1524 1525 1526 1528 1529 1531 1533 1535 1536 1537 1539
1514 1514 1515 1515 1520 1523 1516 1503 1501 1500 1500 1499 1503 1506 1509 1512 1514 1515 1517 1519 1520 1521 1521 1521 1521 1521 1520 1520 1520 1520 1520 1520 1521 1521 1522 1523 1524 1525 1526 1527 1528 1529 1531 1532 1534 1535 1537 1538 1540
1515 1515 1515 1518 1519 1510 1505 1501 1500 1501 1503 1503 1504 1509 1512 1515 1515 1517 1518 1520 1521 1522 1522 1522 1522 1522 1522 1522 1522 1522 1522 1522 1522 1523 1523 1524 1525 1526 1527 1528 1529 1530 1532 1533 1535 1536 1537 1539 1540
1515 1516 1518 1520 1514 1504 1500 1499 1499 1500 1504 1507 1506 1512 1515 1517 1517 1518 1520 1522 1522 1523 1523 1524 1524 1524 1524 1524 1523 1523 1524 1524 1524 1524 1525 1526 1527 1527 1528 1529 1530 1531 1533 1534 1536 1537 1538 1540 1541
1516 1516 1525 1526 1514 1504 1500 1499 1500 1503 1507 1509 1510 1513 1518 1519 1519 1520 1522 1523 1524 1524 1524 1525 1525 1525 1525 1525 1525 1525 1525 1525 1526 1526 1527 1527 1528 1529 1529 1530 1531 1532 1533 1535 1536 1537 1539 1540 1542
1517 1519 1524 1520 1514 1507 1502 1501 1501 1504 1507 1509 1510 1514 1519 1521 1520 1521 1523 1524 1525 1525 1525 1526 1526 1527 1527 1527 1527 1527 1527 1527 1527 1528 1528 1529 1529 1530 1530 1531 1532 1533 1534 1535 1536 1538 1539 1540 1541
1515 1519 1521 1518 1514 1509 1502 1501 1503 1504 1507 1511 1511 1513 1518 1520 1521 1522 1524 1525 1526 1526 1527 1527 1528 1528 1528 1528 1529 1529 1529 1529 1529 1529 1529 1530 1530 1531 1531 1532 1533 1533 1534 1535 1537 1538 1539 1540 1541
1515 1522 1523 1516 1512 1508 1502 1502 1505 1506 1507 1511 1512 1512 1516 1519 1521 1522 1524 1525 1526 1527 1528 1528 1529 1529 1530 1530 1530 1530 1530 1530 1530 1530 1530 1530 1531 1532 1532 1533 1533 1534 1534 1535 1536 1537 1539 1540 1541
1513 1522 1515 1506 1504 1504 1502 1503 1505 1508 1509 1511 1513 1516 1518 1519 1520 1521 1522 1524 1526 1527 1528 1529 1530 1530 1531 1531 1531 1531 1531 1531 1531 1531 1531 1531 1532 1532 1533 1533 1534 1534 1534 1535 1536 1537 1538 1539 1540
1511 1513 1506 1503 1502 1502 1503 1503 1504 1507 1511 1511 1512 1515 1518 1519 1520 1521 1522 1524 1525 1527 1528 1530 1531 1531 1532 1532 1532 1532 1532 1532 1532 1532 1532 1532 1532 1533 1533 1533 1533 1534 1535 1535 1536 1536 1537 1538 1539
1508 1505 1503 1502 1501 1501 1503 1503 1505 1506 1509 1510 1510 1513 1517 1519 1520 1521 1522 1524 1526 1527 1529 1530 1531 1532 1532 1533 1533 1533 1533 1533 1533 1533 1533 1533 1533 1533 1533 1533 1534 1534 1535 1535 1535 1536 1536 1537 1538
1505 1503 1501 1500 1500 1499 1501 1504 1504 1507 1509 1511 1513 1515 1517 1519 1521 1522 1523 1525 1526 1527 1529 1530 1531 1532 1532 1533 1533 1534 1534 1533 1533 1533 1533 1533 1533 1533 1533 1534 1534 1534 1534 1534 1535 1535 1535 1536 1536
1502 1500 1498 1499 1499 1500 1502 1505 1506 1508 1509 1512 1514 1516 1517 1519 1521 1522 1524 1525 1526 1527 1528 1530 1531 1532 1533 1533 1534 1534 1534 1534 1534 1534 1534 1534 1534 1533 1533 1534 1534 1534 1534 1534 1535 1535 1535 1535 1535
1500 1501 1499 1498 1498 1500 1502 1508 1507 1508 1510 1512 1514 1515 1517 1519 1521 1522 1523 1524 1525 1527 1528 1530 1531 1532 1533 1533 1534 1534 1534 1535 1535 1534 1534 1534 1534 1534 1534 1534 1534 1535 1535 1535 1535 1535 1535 1535 1535
1500 1505 1510 1499 1498 1500 1506 1517 1506 1508 1509 1512 1513 1515 1516 1518 1520 1521 1523 1524 1526 1527 1528 1529 1531 1532 1533 1533 1534 1534 1535 1535 1535 1535 1535 1535 1535 1535 1535 1535 1535 1535 1535 1535 1535 1535 1535 1535 1535
1509 1516 1512 1502 1497 1499 1504 1511 1505 1506 1507 1510 1512 1513 1515 1518 1519 1521 1522 1523 1525 1527 1528 1529 1530 1532 1533 1533 1534 1534 1535 1535 1535 1535 1535 1535 1535 1535 1535 1535 1535 1535 1535 1535 1535 1535 1535 1535 1535
1518 1515 1510 1507 1498 1499 1505 1506 1503 1504 1505 1507 1510 1512 1513 1515 1517 1519 1521 1523 1525 1526 1528 1529 1530 1532 1532 1533 1534 1534 1534 1535 1535 1535 1535 1535 1535 1535 1535 1535 1535 1535 1535 1535 1535 1535 1535 1535 1535
1503 1507 1508 1501 1494 1499 1504 1505 1502 1502 1503 1505 1508 1510 1511 1513 1515 1518 1520 1522 1524 1525 1526 1528 1529 1531 1531 1532 1532 1533 1533 1534 1535 1535 1535 1535 1535 1535 1535 1535 1535 1535 1535 1535 1535 1535 1535 1535 1535
1500 1508 1507 1500 1494 1499 1504 1504 1500 1500 1501 1502 1505 1508 1509 1512 1514 1516 1518 1520 1522 1523 1525 1526 1528 1529 1529 1530 1531 1532 1533 1534 1534 1535 1535 1535 1535 1535 1535 1535 1535 1535 1534 1534 1534 1534 1534 1534 1534
1499 1504 1503 1504 1499 1500 1505 1512 1507 1501 1500 1502 1503 1505 1507 1509 1511 1514 1516 1518 1520 1522 1523 1524 1526 1527 1528 1529 1530 1531 1532 1533 1533 1533 1534 1534 1534 1534 1534 1534 1534 1534 1534 1534 1534 1534 1533 1533 1533
1503 1491 1492 1496 1508 1518 1511 1529 1512 1503 1501 1501 1503 1504 1506 1507 1509 1511 1513 1516 1518 1519 1521 1523 1524 1525 1527 1528 1529 1530 1530 1530 1531 1532 1533 1533 1533 1533 1533 1533 1533 1533 1533 1533 1533 1533 1532 1532 1532
1491 1484 1489 1495 1505 1517 1515 1524 1517 1504 1505 1501 1500 1501 1503 1504 1506 1508 1510 1513 1515 1518 1520 1521 1523 1524 1525 1526 1527 1528 1529 1530 1530 1531 1531 1532 1532 1532 1532 1532 1531 1531 1532 1532 1532 1532 1532 1531 1531
1481 1488 1494 1502 1514 1530 1518 1522 1522 1507 1500 1498 1497 1499 1500 1501 1503 1506 1509 1511 1514 1517 1518 1520 1521 1522 1523 1524 1525 1526 1527 1528 1529 1529 1529 1530 1530 1531 1531 1531 1531 1530 1530 1531 1531 1531 1530 1530 1530
1484 1505 1527 1531 1537 1533 1515 1519 1518 1496 1491 1492 1494 1496 1497 1499 1501 1504 1507 1509 1512 1514 1516 1518 1519 1520 1521 1522 1523 1524 1525 1526 1527 1527 1528 1528 1528 1529 1529 1529 1530 1529 1529 1529 1530 1529 1529 1529 1529
1487 1500 1526 1538 1541 1532 1516 1520 1506 1488 1487 1490 1492 1494 1496 1498 1499 1502 1504 1507 1509 1511 1513 1515 1516 1517 1518 1520 1521 1522 1524 1524 1525 1526 1526 1526 1527 1527 1528 1528 1528 1528 1528 1529 1529 1528 1528 1528 1527
1484 1494 1497 1517 1524 1532 1526 1514 1499 1488 1489 1490 1491 1493 1495 1496 1497 1500 1503 1505 1507 1509 1511 1512 1513 1515 1516 1518 1519 1520 1521 1522 1523 1523 1524 1525 1525 1525 1526 1527 1527 1527 1527 1527 1527 1527 1526 1526 1526
1473 1482 1502 1517 1532 1539 1530 1521 1514 1498 1493 1489 1490 1492 1494 1495 1497 1499 1501 1503 1505 1507 1509 1510 1511 1512 1514 1515 1516 1517 1519 1520 1521 1522 1522 1523 1523 1524 1524 1524 1525 1525 1525 1525 1525 1525 1525 1525 1524
1477 1484 1496 1511 1516 1533 1539 1525 1492 1490 1488 1488 1488 1489 1492 1494 1496 1498 1500 1502 1504 1506 1507 1508 1509 1510 1511 1512 1514 1515 1516 1517 1519 1519 1520 1521 1521 1522 1522 1522 1522 1523 1523 1523 1523 1523 1523 1523 1523
1470 1478 1490 1508 1516 1518 1526 1518 1482 1483 1483 1484 1487 1489 1491 1494 1495 1496 1498 1500 1503 1504 1506 1507 1507 1508 1509 1510 1512 1513 1514 1515 1516 1517 1518 1519 1519 1519 1519 1520 1520 1520 1521 1521 1521 1521 1521 1521 1521